Погода в Солянке

Россия / Тюменская область     59°26′02″N   68°58′40″E
темп.,
°C
ветер,
м/с
пор.,
м/с
влажн.,
%
обл.,
%
осадки,
мм/ч
давл.,
гПа
погр.,
м
19 сентября, вс
вс1923:00+3з5981100 0.1 9981064
02:00+2з51096100 0.1 997764
05:00+1з51298100 2.1 996746
08:00+1з51197100 1.4 996612
11:00+2зсз51197100 1.9 996593
14:00+3зсз51095100 0.4 998894
17:00+2зсз51197100 1.6 999991
20:00+2зсз61397100 1.1 10001084
20 сентября, пн
пн2023:00+2сз61297100 1.5 10021055
02:00+2ссз51198100 0.7 10051023
05:00+2ссз5109299 0.9 1009853
08:00+2ссз51198100 0.2 1011915
11:00+4ссз51093100 0.4 1014868
14:00+3ссз51097100 0.4 1017847
17:00+3ссз5997100 0.6 1019859
20:00+2ссз4998100 0.3 1020826
21 сентября, вт
вт2123:00+1ссз499796 0.4 1022735
02:00−1сз4109599 0.1 1023336
05:00+1сз4993100 0.1 1024493
08:00+2сз3892100 0.0 1024541
11:00+3сз3689100 0.1 1023781
14:00+5зсз3783100 0.2 1023946
17:00+5зсз3885100 0.4 1022606
20:00+3з278985 0.0 1022521
22 сентября, ср
ср2223:00+3зсз3893100 0.0 1021712
02:00+3зсз3798100 0.1 1020773
05:00+3сз3798100 0.3 1020623
08:00+3ссз4795100 0.3 1021723
11:00+4ссз378780 0.4 1022746
14:00+5ссз3686100 0.1 1023786
17:00+3с389028 0.3 1024604
20:000ссз229358 0.0 102516
23 сентября, чт
чт2323:000сз229571 0.0 102623
02:00+2сз2589100 0.0 1027128
05:000ссз229668 0.0 102844
08:00+3сз279198 0.0 1029281
11:00+5зсз378597 0.0 1030694
14:00+7сз3683100 0.0 1030698
17:00+6ссз2391100 0.0 103197
20:00+5сз1194100 0.0 103222